User: anonymous
Location: Unspecified
(0.0000°N, 0.0000°E)
Time: 18:22:39
(UTC+02:00)
Language:

ISS - Orbit

View from above orbital plane
View from above orbital plane
View from above satellite
View from above satellite

Ground track
Ground track

The orbit data is extracted from the following two-line orbital elements,

1 25544U 98067A   14266.41777778  .00012639  00000-0  22455-3 0  1373
2 25544 051.6479 332.7095 0002151 121.3788 047.6397 15.50569280906565
Epoch (UTC): 23 September 2014 10:01:36
Eccentricity: 0.0002151
inclination: 51.6479°
perigee height: 413 km
apogee height: 416 km
right ascension of ascending node: 332.7095°
argument of perigee: 121.3788°
revolutions per day: 15.50569280
mean anomaly at epoch: 47.6397°
orbit number at epoch: 90656

The dashed part of the orbit path shows where the satellite is in the earth's shadow,  

DLR